FW9830 Weather Reports


Display with metric or nautical units.
time (UTC)temp
F
wind
direction
speed
MPH
gust
MPH
rain 1hr
in
rain 24hr
in
rain mn
in
humidity
%
barometer
mb
20260509132649 51 291 6.0 10.0 0.00 0.00 0.00 61 1003.4
20260509132147 51 288 5.0 9.0 0.00 0.00 0.00 60 1003.3
20260509131643 51 255 4.0 9.0 0.00 0.00 0.00 59 1003.4
20260509131140 52 310 5.0 11.0 0.00 0.00 0.00 60 1003.3
20260509130636 52 279 3.0 9.0 0.00 0.00 0.00 59 1003.2
20260509130132 52 301 6.0 9.0 0.00 0.00 0.00 59 1003.0
20260509125629 52 288 6.0 12.0 0.00 0.00 0.00 58 1002.9
20260509125126 52 301 3.0 9.0 0.00 0.00 0.00 60 1002.9
20260509124622 51 323 5.0 9.0 0.00 0.00 0.00 61 1003.0
20260509124119 52 262 7.0 9.0 0.00 0.00 0.00 59 1002.6
20260509123617 52 316 8.0 11.0 0.00 0.00 0.00 59 1002.4
20260509123114 52 311 7.0 10.0 0.00 0.00 0.00 59 1002.4
20260509122610 52 266 5.0 7.0 0.00 0.00 0.00 60 1002.3
20260509122107 52 282 6.0 11.0 0.00 0.00 0.00 60 1002.4
20260509121603 52 301 6.0 11.0 0.00 0.00 0.00 61 1002.5
20260509121101 51 286 4.0 11.0 0.00 0.00 0.00 64 1002.3
20260509120559 51 250 9.0 11.0 0.00 0.00 0.00 62 1002.0
20260509120057 51 313 6.0 8.0 0.00 0.00 0.00 60 1002.1
20260509115554 51 287 4.0 6.0 0.00 0.00 0.00 62 1001.7
20260509115052 51 342 4.0 10.0 0.00 0.00 0.00 60 1001.7
20260509114550 51 292 2.0 5.0 0.00 0.00 0.00 61 1001.9
20260509114048 51 270 2.0 6.0 0.00 0.00 0.00 61 1001.9
20260509113546 51 297 3.0 8.0 0.00 0.00 0.00 61 1001.5
20260509113044 51 314 6.0 7.0 0.00 0.00 0.00 61 1001.6
20260509112540 51 305 4.0 7.0 0.00 0.00 0.00 59 1001.4
20260509112037 51 295 5.0 7.0 0.00 0.00 0.00 59 1001.2
20260509111534 51 304 7.0 7.0 0.00 0.00 0.00 59 1001.1
20260509111031 51 294 6.0 10.0 0.00 0.00 0.00 59 1001.3
20260509110528 51 270 5.0 9.0 0.00 0.00 0.00 59 1001.2
20260509110025 51 314 6.0 11.0 0.00 0.00 0.00 59 1001.0
20260509105523 51 310 5.0 7.0 0.00 0.00 0.00 59 1000.9
20260509105021 51 317 7.0 9.0 0.00 0.00 0.00 59 1001.0
20260509104517 52 289 7.0 8.0 0.00 0.00 0.00 59 1000.9
20260509104014 53 350 4.0 12.0 0.00 0.00 0.00 57 1001.1
20260509103512 53 328 8.0 12.0 0.00 0.00 0.00 58 1000.9
20260509103010 53 300 8.0 9.0 0.00 0.00 0.00 59 1000.6
20260509102507 53 239 6.0 8.0 0.00 0.00 0.00 58 1000.6
20260509102004 53 335 6.0 10.0 0.00 0.00 0.00 59 1000.6
20260509101500 54 239 8.0 13.0 0.00 0.00 0.00 61 1000.5
20260509100957 54 255 8.0 20.0 0.00 0.00 0.00 63 1000.7
20260509100454 54 267 6.0 12.0 0.00 0.00 0.00 66 1000.8
20260509095951 54 258 10.0 21.0 0.00 0.00 0.00 67 1000.8
20260509095448 55 259 9.0 20.0 0.00 0.00 0.00 63 1000.6
20260509094945 53 250 13.0 14.0 0.00 0.00 0.00 64 1000.4
20260509094441 54 233 9.0 15.0 0.00 0.00 0.00 66 1000.1
20260509093939 53 236 9.0 15.0 0.00 0.00 0.00 68 1000.2
20260509093436 54 237 8.0 14.0 0.00 0.00 0.00 67 1000.1
20260509092934 54 223 8.0 15.0 0.00 0.00 0.00 67 1000.0
20260509092432 54 228 9.0 15.0 0.00 0.00 0.00 67 1000.2
20260509091931 54 227 9.0 16.0 0.00 0.00 0.00 68 1000.4
20260509091427 54 230 8.0 15.0 0.00 0.00 0.00 68 1000.4
20260509090924 54 237 12.0 15.0 0.00 0.00 0.00 67 1000.3
20260509090421 55 230 12.0 17.0 0.00 0.00 0.00 66 1000.1
20260509085919 54 244 9.0 15.0 0.00 0.00 0.00 68 1000.4
20260509085416 55 233 9.0 14.0 0.00 0.00 0.00 67 1000.4
20260509084912 55 233 10.0 13.0 0.00 0.00 0.00 66 1000.5
20260509084409 55 227 7.0 11.0 0.00 0.00 0.00 67 1000.6
20260509083906 54 221 8.0 9.0 0.00 0.00 0.00 68 1000.6
20260509083403 52 212 7.0 9.0 0.00 0.00 0.00 71 1000.5
20260509082900 52 205 9.0 9.0 0.00 0.00 0.00 72 1000.6
20260509082357 51 204 7.0 9.0 0.00 0.00 0.00 73 1000.7
20260509081854 51 198 7.0 9.0 0.00 0.00 0.00 72 1000.6
20260509081351 51 207 10.0 11.0 0.00 0.00 0.00 72 1000.7
20260509080849 51 196 8.0 9.0 0.00 0.00 0.00 72 1000.3
20260509080347 51 197 6.0 8.0 0.00 0.00 0.00 71 1000.7
20260509075844 51 200 8.0 8.0 0.00 0.00 0.00 71 1000.5
20260509075341 51 198 8.0 9.0 0.00 0.00 0.00 71 1000.7
20260509074838 51 197 8.0 8.0 0.00 0.00 0.00 71 1000.7
20260509074336 50 199 7.0 7.0 0.00 0.00 0.00 71 1001.0
20260509073832 51 207 4.0 7.0 0.00 0.00 0.00 71 1001.0
20260509073329 51 195 7.0 9.0 0.00 0.00 0.00 70 1000.9
20260509072825 50 196 5.0 6.0 0.00 0.00 0.00 72 1001.0
20260509072322 50 203 5.0 7.0 0.00 0.00 0.00 73 1001.0
20260509071819 50 195 5.0 7.0 0.00 0.00 0.00 72 1001.2
20260509071316 49 192 8.0 9.0 0.00 0.00 0.00 73 1001.3
20260509070813 48 187 7.0 9.0 0.00 0.00 0.00 75 1001.3
20260509070310 49 190 5.0 7.0 0.00 0.00 0.00 73 1001.2
20260509065806 49 182 3.0 6.0 0.00 0.00 0.00 73 1001.2
20260509065305 49 172 5.0 5.0 0.00 0.00 0.00 72 1001.2
20260509064758 50 173 5.0 6.0 0.00 0.00 0.00 71 1001.5
20260509064256 50 183 4.0 5.0 0.00 0.00 0.00 71 1001.6
20260509063753 50 175 5.0 6.0 0.00 0.00 0.00 70 1001.7
20260509063249 50 188 7.0 9.0 0.00 0.00 0.00 71 1002.0
20260509062747 50 179 4.0 6.0 0.00 0.00 0.00 70 1002.0
20260509062243 50 179 6.0 6.0 0.00 0.00 0.00 69 1002.1
20260509061740 51 180 5.0 7.0 0.00 0.00 0.00 68 1002.2
20260509061239 50 166 7.0 9.0 0.00 0.00 0.00 68 1002.5
20260509060736 51 171 7.0 9.0 0.00 0.00 0.00 67 1002.3
20260509060232 51 173 7.0 11.0 0.00 0.00 0.00 67 1002.3
20260509055728 51 168 9.0 12.0 0.00 0.00 0.00 66 1002.2
20260509055224 52 173 8.0 13.0 0.00 0.00 0.00 65 1002.5
20260509054720 51 173 7.0 12.0 0.00 0.00 0.00 65 1002.6
20260509054217 51 162 8.0 12.0 0.00 0.00 0.00 65 1002.6
20260509053716 51 151 9.0 11.0 0.00 0.00 0.00 64 1002.6
20260509053212 52 156 9.0 11.0 0.00 0.00 0.00 62 1002.8
20260509052710 52 157 10.0 11.0 0.00 0.00 0.00 61 1002.7
20260509052208 52 162 12.0 12.0 0.00 0.00 0.00 60 1003.0
20260509051705 53 153 8.0 11.0 0.00 0.00 0.00 59 1003.2
20260509051203 53 158 10.0 12.0 0.00 0.00 0.00 58 1003.2
20260509050700 53 157 10.0 11.0 0.00 0.00 0.00 58 1003.5
20260509050156 53 157 10.0 12.0 0.00 0.00 0.00 58 1003.2
20260509045654 51 154 10.0 11.0 0.00 0.00 0.00 64 1003.2
20260509045150 52 142 9.0 10.0 0.00 0.00 0.00 61 1003.4
20260509044648 51 148 8.0 10.0 0.00 0.00 0.00 63 1003.3
20260509044145 53 135 7.0 8.0 0.00 0.00 0.00 59 1003.4
20260509043641 53 173 5.0 6.0 0.00 0.00 0.00 59 1003.6
20260509043137 53 198 7.0 10.0 0.00 0.00 0.00 58 1003.6
20260509042634 51 212 3.0 4.0 0.00 0.00 0.00 66 1003.5
20260509042129 51 105 2.0 5.0 0.00 0.00 0.00 66 1003.9
20260509041626 52 102 5.0 6.0 0.00 0.00 0.00 63 1003.7
20260509041124 52 146 4.0 6.0 0.00 0.00 0.00 62 1003.8
20260509040622 52 137 5.0 5.0 0.00 0.00 0.00 64 1003.9
20260509040119 53 158 6.0 7.0 0.00 0.00 0.00 59 1004.0
20260509035616 51 137 6.0 8.0 0.00 0.00 0.00 64 1004.1
20260509035112 51 134 6.0 9.0 0.00 0.00 0.00 65 1004.2
20260509034610 52 139 5.0 8.0 0.00 0.00 0.00 64 1004.0
20260509034107 58 135 3.0 4.0 0.00 0.00 0.00 50 1004.0
20260509033604 60 0 0.0 2.0 0.00 0.00 0.00 43 1004.1
20260509033101 61 355 3.0 4.0 0.00 0.00 0.00 43 1004.0
20260509032558 60 303 5.0 5.0 0.00 0.00 0.00 45 1004.1
20260509032055 60 266 10.0 13.0 0.00 0.00 0.00 44 1004.3
20260509031553 58 243 1.0 4.0 0.00 0.00 0.00 48 1004.3
20260509031050 53 180 1.0 4.0 0.00 0.00 0.00 59 1004.4
20260509030548 53 112 7.0 7.0 0.00 0.00 0.00 58 1004.4
20260509030045 53 80 2.0 4.0 0.00 0.00 0.00 58 1004.2
20260509025541 53 75 3.0 4.0 0.00 0.00 0.00 56 1004.4
20260509025036 54 115 4.0 4.0 0.00 0.00 0.00 54 1004.3
20260509024533 57 97 4.0 6.0 0.00 0.00 0.00 49 1004.3
20260509024029 58 57 2.0 2.0 0.00 0.00 0.00 45 1004.5
20260509023527 60 165 0.0 2.0 0.00 0.00 0.00 44 1004.3
20260509023023 61 216 2.0 3.0 0.00 0.00 0.00 40 1004.4
20260509022520 62 217 4.0 6.0 0.00 0.00 0.00 39 1004.2
20260509022018 61 236 5.0 9.0 0.00 0.00 0.00 40 1004.2
20260509021514 60 225 5.0 8.0 0.00 0.00 0.00 44 1004.5
20260509021011 61 227 7.0 9.0 0.00 0.00 0.00 45 1004.4
20260509020510 60 228 4.0 8.0 0.00 0.00 0.00 43 1004.5
20260509020006 60 214 3.0 5.0 0.00 0.00 0.00 44 1004.5
20260509015505 61 240 5.0 6.0 0.00 0.00 0.00 43 1004.5
20260509015002 62 322 0.0 5.0 0.00 0.00 0.00 41 1004.6
20260509014459 62 246 6.0 8.0 0.00 0.00 0.00 40 1004.5
20260509013955 63 256 7.0 10.0 0.00 0.00 0.00 38 1004.6
20260509013452 63 254 4.0 14.0 0.00 0.00 0.00 38 1004.4
20260509012947 62 244 5.0 12.0 0.00 0.00 0.00 39 1004.5
20260509012444 63 267 7.0 13.0 0.00 0.00 0.00 38 1004.5
20260509011941 64 289 9.0 24.0 0.00 0.00 0.00 34 1004.5
20260509011439 63 248 11.0 18.0 0.00 0.00 0.00 39 1004.6
20260509010936 62 225 12.0 18.0 0.00 0.00 0.00 41 1004.7
20260509010434 62 234 5.0 5.0 0.00 0.00 0.00 39 1004.6
20260509005931 62 236 3.0 4.0 0.00 0.00 0.00 37 1004.6
20260509005429 62 257 4.0 4.0 0.00 0.00 0.00 38 1004.7
20260509004928 62 275 2.0 4.0 0.00 0.00 0.00 37 1004.5
20260509004425 61 322 2.0 3.0 0.00 0.00 0.00 42 1004.6
20260509003923 62 331 3.0 4.0 0.00 0.00 0.00 42 1004.6
20260509003421 63 234 3.0 6.0 0.00 0.00 0.00 36 1004.5
20260509002917 63 226 5.0 5.0 0.00 0.00 0.00 37 1004.4
20260509002416 63 223 5.0 7.0 0.00 0.00 0.00 37 1004.4
20260509001912 63 230 9.0 9.0 0.00 0.00 0.00 35 1004.5
20260509001408 63 235 5.0 7.0 0.00 0.00 0.00 34 1004.5
20260509000906 64 238 6.0 7.0 0.00 0.00 0.00 35 1004.6
20260509000404 64 231 4.0 7.0 0.00 0.00 0.00 33 1004.5
20260508235859 64 222 3.0 10.0 0.00 0.00 0.00 34 1004.5
20260508235357 64 240 6.0 11.0 0.00 0.00 0.00 35 1004.6
20260508234854 64 231 7.0 12.0 0.00 0.00 0.00 34 1004.8
20260508234350 64 239 6.0 7.0 0.00 0.00 0.00 35 1004.7
20260508233849 64 234 7.0 9.0 0.00 0.00 0.00 35 1004.6
20260508233348 64 243 9.0 12.0 0.00 0.00 0.00 32 1004.8
20260508232844 64 223 8.0 13.0 0.00 0.00 0.00 32 1004.7
20260508232340 65 228 8.0 16.0 0.00 0.00 0.00 31 1004.9
20260508231839 65 229 9.0 16.0 0.00 0.00 0.00 30 1004.9
20260508231335 65 220 8.0 12.0 0.00 0.00 0.00 31 1004.7
20260508230832 65 223 8.0 15.0 0.00 0.00 0.00 33 1004.8
20260508230328 66 245 11.0 14.0 0.00 0.00 0.00 30 1005.0
20260508225826 66 233 7.0 13.0 0.00 0.00 0.00 30 1004.9
20260508225322 66 222 12.0 15.0 0.00 0.00 0.00 28 1005.0
20260508224821 66 238 17.0 18.0 0.00 0.00 0.00 31 1005.1
20260508224318 66 230 12.0 14.0 0.00 0.00 0.00 30 1005.1
20260508223815 66 231 7.0 10.0 0.00 0.00 0.00 33 1005.3
20260508223312 66 249 8.0 14.0 0.00 0.00 0.00 33 1005.6
20260508222810 65 253 7.0 11.0 0.00 0.00 0.00 33 1005.4
20260508222307 65 232 8.0 10.0 0.00 0.00 0.00 35 1005.5
20260508221803 65 237 7.0 12.0 0.00 0.00 0.00 33 1005.4
20260508221259 65 246 8.0 10.0 0.00 0.00 0.00 31 1005.5
20260508220755 65 220 8.0 13.0 0.00 0.00 0.00 31 1005.5
20260508220252 65 287 5.0 16.0 0.00 0.00 0.00 31 1006.0
20260508215748 66 262 8.0 13.0 0.00 0.00 0.00 30 1005.8
20260508215245 64 297 9.0 15.0 0.00 0.00 0.00 30 1005.8
20260508214742 65 328 9.0 16.0 0.00 0.00 0.00 32 1006.0
20260508214239 64 300 10.0 16.0 0.00 0.00 0.00 31 1005.7
20260508213736 64 297 5.0 13.0 0.00 0.00 0.00 31 1005.6
20260508213232 65 303 6.0 17.0 0.00 0.00 0.00 33 1006.0
20260508212729 64 235 9.0 12.0 0.00 0.00 0.00 32 1006.0
20260508212225 64 237 13.0 13.0 0.00 0.00 0.00 29 1005.7
20260508211721 65 237 15.0 16.0 0.00 0.00 0.00 31 1006.1
20260508211217 66 246 9.0 16.0 0.00 0.00 0.00 30 1005.8
20260508210715 65 228 11.0 15.0 0.00 0.00 0.00 31 1006.0
20260508210212 65 221 9.0 13.0 0.00 0.00 0.00 31 1006.2
20260508205708 64 244 12.0 15.0 0.00 0.00 0.00 31 1006.3
20260508205205 65 238 8.0 13.0 0.00 0.00 0.00 32 1006.2
20260508204701 65 263 6.0 10.0 0.00 0.00 0.00 34 1006.3
20260508204157 65 309 8.0 17.0 0.00 0.00 0.00 31 1006.5
20260508203653 64 267 9.0 13.0 0.00 0.00 0.00 31 1006.4
20260508203150 65 266 6.0 7.0 0.00 0.00 0.00 31 1006.5
20260508202646 65 303 3.0 7.0 0.00 0.00 0.00 35 1006.9
20260508202144 64 254 6.0 8.0 0.00 0.00 0.00 32 1006.7
20260508201640 64 245 10.0 12.0 0.00 0.00 0.00 31 1006.8
20260508201137 64 258 6.0 14.0 0.00 0.00 0.00 31 1006.7
20260508200634 64 239 12.0 17.0 0.00 0.00 0.00 31 1006.9
20260508200130 64 237 14.0 15.0 0.00 0.00 0.00 32 1006.9
20260508195626 64 233 8.0 11.0 0.00 0.00 0.00 32 1007.0
20260508195123 64 238 15.0 18.0 0.00 0.00 0.00 31 1007.2
20260508194619 64 237 10.0 11.0 0.00 0.00 0.00 33 1007.2
20260508194117 63 231 5.0 8.0 0.00 0.00 0.00 30 1007.1
20260508193614 63 247 10.0 14.0 0.00 0.00 0.00 31 1007.4
20260508193110 63 309 8.0 12.0 0.00 0.00 0.00 31 1007.4
20260508192607 63 298 9.0 16.0 0.00 0.00 0.00 31 1007.4
20260508192104 64 240 11.0 16.0 0.00 0.00 0.00 31 1007.4
20260508191601 64 287 3.0 14.0 0.00 0.00 0.00 31 1007.5
20260508191058 64 240 17.0 20.0 0.00 0.00 0.00 31 1007.7
20260508190555 63 241 12.0 25.0 0.00 0.00 0.00 32 1007.7
20260508190051 63 237 16.0 23.0 0.00 0.00 0.00 31 1007.6
20260508185548 63 261 15.0 32.0 0.00 0.00 0.00 31 1007.8
20260508185046 63 263 12.0 21.0 0.00 0.00 0.00 32 1007.7
20260508184543 63 238 12.0 16.0 0.00 0.00 0.00 33 1007.8
20260508184040 62 251 14.0 17.0 0.00 0.00 0.00 34 1007.9
20260508183536 62 239 14.0 17.0 0.00 0.00 0.00 32 1008.1
20260508183032 62 228 19.0 24.0 0.00 0.00 0.00 33 1008.0
20260508182529 62 234 13.0 22.0 0.00 0.00 0.00 33 1007.9
20260508182025 63 258 10.0 19.0 0.00 0.00 0.00 32 1008.2
20260508181521 63 232 12.0 21.0 0.00 0.00 0.00 32 1008.1
20260508181019 62 237 18.0 20.0 0.00 0.00 0.00 33 1008.3
20260508180515 62 244 15.0 24.0 0.00 0.00 0.00 32 1008.6
20260508180011 62 241 14.0 23.0 0.00 0.00 0.00 33 1008.6
20260508175508 62 239 13.0 21.0 0.00 0.00 0.00 34 1008.4
20260508175006 63 236 13.0 19.0 0.00 0.00 0.00 35 1008.6
20260508174503 62 241 9.0 20.0 0.00 0.00 0.00 33 1008.9
20260508174000 62 255 9.0 17.0 0.00 0.00 0.00 35 1008.9
20260508173457 61 237 15.0 17.0 0.00 0.00 0.00 34 1009.1
20260508172953 61 244 16.0 21.0 0.00 0.00 0.00 36 1009.0
20260508172450 62 234 15.0 21.0 0.00 0.00 0.00 33 1009.2
20260508171946 61 239 15.0 19.0 0.00 0.00 0.00 36 1009.3
20260508171443 62 249 14.0 21.0 0.00 0.00 0.00 38 1009.5
20260508170939 61 233 14.0 23.0 0.00 0.00 0.00 35 1009.6
20260508170437 61 272 5.0 21.0 0.00 0.00 0.00 36 1009.6
20260508165933 61 297 6.0 21.0 0.00 0.00 0.00 37 1009.7
20260508165432 61 239 9.0 17.0 0.00 0.00 0.00 38 1009.8
20260508164927 60 227 16.0 23.0 0.00 0.00 0.00 37 1009.7
20260508164424 59 229 9.0 23.0 0.00 0.00 0.00 39 1010.0
20260508163921 60 255 13.0 22.0 0.00 0.00 0.00 39 1010.2
20260508163419 59 240 14.0 23.0 0.00 0.00 0.00 39 1010.2
20260508162914 60 238 10.0 22.0 0.00 0.00 0.00 40 1010.2
20260508162412 59 235 20.0 20.0 0.00 0.00 0.00 39 1010.2
20260508161909 59 242 18.0 21.0 0.00 0.00 0.00 40 1010.2
20260508161406 58 241 23.0 23.0 0.00 0.00 0.00 40 1010.4
20260508160903 59 240 20.0 22.0 0.00 0.00 0.00 43 1010.6
20260508160402 59 249 8.0 19.0 0.00 0.00 0.00 44 1010.4
20260508155858 59 236 21.0 21.0 0.00 0.00 0.00 43 1010.4
20260508155355 57 237 13.0 18.0 0.00 0.00 0.00 42 1010.6
20260508154852 58 219 11.0 19.0 0.00 0.00 0.00 42 1010.6
20260508154350 57 237 12.0 23.0 0.00 0.00 0.00 43 1010.6
20260508153846 58 209 14.0 19.0 0.00 0.00 0.00 44 1010.7
20260508153343 57 252 15.0 19.0 0.00 0.00 0.00 46 1010.7
20260508152839 58 245 12.0 22.0 0.00 0.00 0.00 43 1010.7
20260508152336 57 240 14.0 22.0 0.00 0.00 0.00 45 1010.6
20260508151832 56 241 16.0 22.0 0.00 0.00 0.00 40 1010.9
20260508151329 56 223 17.0 23.0 0.00 0.00 0.00 44 1010.8
20260508150825 56 232 14.0 22.0 0.00 0.00 0.00 45 1010.6
20260508150322 56 253 10.0 18.0 0.00 0.00 0.00 46 1011.0
20260508145819 56 267 11.0 18.0 0.00 0.00 0.00 46 1010.8
20260508145315 55 244 18.0 20.0 0.00 0.00 0.00 44 1010.7
20260508144812 55 246 15.0 19.0 0.00 0.00 0.00 48 1011.0
20260508144310 55 234 10.0 17.0 0.00 0.00 0.00 53 1011.0
20260508143807 54 243 13.0 18.0 0.00 0.00 0.00 53 1010.9
20260508143304 54 243 16.0 18.0 0.00 0.00 0.00 54 1010.9
20260508142801 54 240 15.0 19.0 0.00 0.00 0.00 53 1010.9
20260508142257 53 242 14.0 18.0 0.00 0.00 0.00 54 1011.1
20260508141754 53 238 19.0 22.0 0.00 0.00 0.00 56 1011.1
20260508141251 53 240 11.0 20.0 0.00 0.00 0.00 57 1011.0
20260508140748 53 251 10.0 22.0 0.00 0.00 0.00 58 1010.9
20260508140245 52 238 20.0 21.0 0.00 0.00 0.00 57 1011.0
20260508135741 52 234 17.0 21.0 0.00 0.00 0.00 58 1011.0
20260508135237 52 236 11.0 17.0 0.00 0.00 0.00 61 1011.1
20260508134733 51 233 15.0 21.0 0.00 0.00 0.00 61 1011.2
20260508134230 51 233 17.0 22.0 0.00 0.00 0.00 60 1011.2
20260508133727 51 247 11.0 19.0 0.00 0.00 0.00 63 1011.4
20260508133225 51 246 11.0 21.0 0.00 0.00 0.00 63 1011.1